CAPE
551 376 440 431 88 76 101 12 9 71 175 153 131 95 91 112 256 329 178 118 124 155 164 82 76 0 0 0 0 0 0 0 0 0 0 0 2 15 9 207 190 55 67
548 463 237 1 7 18 30 16 12 0 0 0 0 0 94 168 237 368 261 102 231 95 68 35 103 95 16 0 0 0 0 0 0 0 0 0 0 0 7 74 93 110 26
304 471 170 79 35 24 33 41 51 36 12 0 8 146 43 49 64 105 351 224 128 149 110 184 189 116 54 3 0 0 0 0 0 0 0 0 0 0 0 76 93 82 74
352 295 236 140 77 97 109 141 179 126 48 126 320 55 50 64 140 262 362 251 174 72 108 336 254 186 124 103 16 0 0 0 0 0 0 0 2 0 0 0 34 133 75
313 293 235 181 206 276 276 243 372 130 168 184 198 156 65 232 383 158 61 45 39 108 166 191 318 282 285 113 63 5 1 0 0 0 0 2 3 0 1 2 3 121 145
208 219 365 328 310 282 265 236 297 225 197 488 132 81 128 313 96 62 31 9 13 34 61 89 192 181 151 107 62 71 65 14 2 4 0 4 2 15 1 1 4 9 80
154 227 278 269 254 288 359 411 582 586 572 138 124 322 119 262 331 78 64 6 15 39 105 166 132 211 185 96 29 21 82 57 49 12 18 31 20 10 15 10 10 4 4
141 291 363 366 411 388 447 552 607 605 393 295 311 186 237 485 329 88 37 22 27 66 111 142 199 145 156 75 15 7 0 11 10 38 34 8 4 11 12 15 10 5 4
174 211 440 412 388 453 625 784 883 790 567 494 459 235 364 345 236 59 38 2 3 0 0 29 143 127 10 0 0 0 0 0 2 13 5 6 4 4 3 4 11 6 4
264 516 627 656 673 816 996 1096 998 857 729 632 264 38 419 208 84 38 0 1 0 4 31 40 0 0 0 0 0 0 0 0 0 3 3 4 7 12 1 1 4 4 3
667 700 903 938 990 1072 1223 1265 1026 841 455 226 155 293 266 126 104 0 1 8 2 11 3 0 0 0 0 0 0 0 0 0 0 2 5 4 18 12 6 1 3 4 5
725 942 1222 1222 1337 1407 1189 977 685 532 215 75 239 212 168 19 0 5 3 14 12 0 0 0 0 0 0 0 0 0 0 0 0 7 10 13 20 12 2 3 2 2 2
860 1424 1507 1628 1551 1143 799 523 322 80 101 196 205 179 56 0 0 0 0 0 0 0 0 0 0 0 0 0 0 0 0 2 2 0 8 16 10 14 6 2 3 0 0
5 0 66 995 853 719 371 284 249 80 0 116 41 3 0 0 0 0 0 0 0 0 0 0 0 0 0 0 0 0 0 0 3 1 3 2 2 11 6 4 4 2 59
0 2 0 454 781 248 36 94 128 0 0 0 0 0 0 0 0 0 0 0 0 0 0 0 0 0 0 0 0 0 0 0 0 0 3 2 3 1 24 2 3 3 2
102 182 676 658 268 7 0 0 0 0 0 0 0 0 0 0 0 0 0 0 0 0 0 0 0 0 0 0 0 0 0 0 0 0 1 2 3 1 1 6 2 3 3
721 400 183 116 30 33 0 0 0 0 0 0 0 0 0 0 0 0 0 0 0 0 0 0 0 0 0 0 0 0 0 0 0 0 0 0 3 4 0 1 2 2 2
392 242 71 4 73 203 271 242 46 0 0 0 0 0 0 0 0 0 0 0 0 0 0 0 0 0 0 0 0 0 0 0 0 0 0 0 0 2 0 2 1 4 4
377 297 152 209 215 138 45 0 0 0 0 0 0 0 0 0 0 0 0 0 0 0 0 0 0 0 0 0 0 0 0 0 0 0 0 0 0 0 0 0 2 0 0
218 24 63 234 130 51 5 0 0 0 0 0 0 0 0 0 0 0 0 0 0 0 0 0 0 0 0 0 0 0 0 0 0 0 0 0 0 0 0 0 0 0 0
258 41 15 141 121 9 1 0 0 0 0 0 0 0 0 0 0 0 0 0 0 0 0 0 0 0 0 0 0 0 0 0 0 0 0 0 0 0 0 0 0 0 0
115 93 119 205 39 0 1 2 0 0 0 0 0 0 0 0 0 0 0 0 0 0 0 0 0 0 0 0 0 0 0 0 0 0 0 0 0 0 0 0 0 0 0
101 102 22 18 18 0 16 19 5 5 0 0 0 0 0 0 0 0 0 0 0 0 0 0 0 0 0 0 0 0 0 0 0 0 0 0 0 0 0 0 0 0 0
0 0 0 0 0 0 0 0 0 2 0 0 0 0 0 0 0 0 0 0 0 0 0 0 0 0 0 0 0 0 0 0 0 0 0 0 0 0 0 0 0 0 0
0 0 0 0 0 0 0 0 0 0 0 0 0 0 0 0 0 0 0 0 0 0 0 0 0 0 0 0 0 0 0 0 0 0 0 0 0 0 0 0 0 0 0
0 0 0 0 0 0 0 0 0 0 0 0 0 0 0 0 0 0 0 0 0 0 0 0 0 0 0 0 0 0 0 0 0 0 0 0 0 0 0 0 0 0 0
CIN
-222 -234 -196 -205 -290 -286 -269 -281 -177 -197 -129 -125 -138 -134 -111 -93 -45 -19 -33 -32 -27 -15 -16 -12 -17 -0 -0 -0 -0 -0 -0 -0 -0 -0 -0 -0 -21 -2 -6 -6 -13 -35 -64
-240 -232 -257 -63 -295 -297 -287 -324 -279 -0 -0 -0 -0 -6 -83 -57 -39 -11 -13 -38 -16 -12 -17 -25 -25 -25 -35 -0 -0 -0 -0 -0 -0 -0 -0 -0 -0 -0 -2 -3 -12 -29 -69
-274 -244 -279 -309 -298 -307 -263 -220 -192 -207 -221 -0 -67 -44 -89 -100 -82 -65 -9 -18 -22 -21 -27 -14 -15 -18 -29 -5 -0 -0 -0 -0 -0 -0 -0 -0 -0 -0 -0 -2 -5 -19 -54
-267 -265 -245 -260 -277 -253 -238 -198 -150 -140 -149 -86 -28 -78 -108 -84 -35 -9 -9 -7 -15 -44 -23 -13 -11 -15 -20 -23 -24 -0 -0 -0 -0 -0 -0 -0 -0 -0 -0 -0 -0 -5 -53
-280 -263 -262 -242 -239 -190 -166 -159 -98 -117 -74 -64 -55 -54 -84 -22 -9 -22 -17 -30 -25 -28 -30 -22 -11 -10 -7 -12 -20 -23 -7 -0 -0 -0 -0 -0 -0 -0 -0 -0 -0 -0 -23
-284 -258 -206 -208 -189 -164 -135 -142 -95 -81 -69 -35 -59 -98 -46 -16 -43 -38 -29 -46 -42 -33 -35 -40 -27 -14 -13 -10 -16 -8 -17 -21 -15 -25 -24 -21 -0 -0 -0 -0 -0 -0 -0
-256 -213 -176 -168 -163 -137 -117 -82 -54 -42 -29 -47 -55 -39 -40 -22 -25 -36 -44 -36 -61 -54 -59 -45 -45 -26 -19 -25 -21 -33 -16 -20 -23 -25 -9 -0 -0 -0 -0 -2 -0 -0 -0
-233 -156 -118 -144 -136 -128 -97 -57 -38 -38 -39 -38 -43 -46 -38 -30 -26 -54 -62 -60 -48 -41 -43 -37 -32 -25 -22 -31 -47 -23 -0 -72 -65 -58 -21 -28 -2 -0 -1 -0 -0 -0 -1
-209 -159 -100 -126 -112 -111 -74 -41 -20 -13 -25 -30 -32 -31 -28 -17 -29 -40 -52 -18 -50 -0 -0 -47 -32 -27 -77 -0 -0 -0 -0 -0 -115 -90 -57 -51 -0 -0 -0 -0 -0 -0 -0
-163 -84 -88 -105 -96 -68 -37 -11 -15 -20 -23 -40 -42 -48 -31 -30 -43 -53 -0 -100 -0 -62 -86 -71 -0 -0 -0 -0 -0 -0 -0 -0 -0 -69 -84 -67 -4 -0 -0 -0 -0 -0 -4
-68 -68 -82 -70 -56 -46 -31 -20 -22 -26 -53 -58 -65 -48 -28 -26 -53 -0 -87 -92 -53 -53 -120 -0 -0 -0 -0 -0 -0 -0 -0 -0 -0 -61 -62 -16 -0 -0 -0 -0 -0 -0 -0
-45 -67 -51 -49 -30 -26 -19 -22 -53 -59 -76 -57 -37 -45 -38 -95 -0 -82 -39 -111 -125 -0 -0 -0 -0 -0 -0 -0 -0 -0 -0 -0 -0 -82 -40 -5 -0 -0 -0 -0 -0 -0 -0
-147 -39 -23 -19 -29 -31 -52 -50 -63 -101 -87 -78 -25 -32 -72 -0 -0 -0 -0 -0 -0 -0 -0 -0 -0 -0 -0 -0 -0 -0 -0 -0 -0 -0 -30 -18 -7 -0 -0 -0 -0 -0 -0
-8 -0 -37 -22 -48 -73 -135 -115 -86 -99 -0 -127 -91 -29 -0 -0 -0 -0 -0 -0 -0 -0 -0 -0 -0 -0 -0 -0 -0 -0 -0 -0 -0 -0 -0 -14 -0 -2 -0 -0 -0 -0 -17
-0 -33 -0 -57 -46 -130 -103 -61 -96 -0 -0 -0 -0 -0 -0 -0 -0 -0 -0 -0 -0 -0 -0 -0 -0 -0 -0 -0 -0 -0 -0 -0 -0 -0 -0 -0 -0 -0 -0 -2 -0 -0 -0
-39 -16 -12 -32 -75 -93 -0 -0 -0 -0 -0 -0 -0 -0 -0 -0 -0 -0 -0 -0 -0 -0 -0 -0 -0 -0 -0 -0 -0 -0 -0 -0 -0 -0 -0 -0 -0 -0 -0 -3 -0 -0 -0
-42 -50 -55 -38 -39 -92 -0 -0 -0 -0 -0 -0 -0 -0 -0 -0 -0 -0 -0 -0 -0 -0 -0 -0 -0 -0 -0 -0 -0 -0 -0 -0 -0 -0 -0 -0 -0 -0 -0 -0 -0 -0 -0
-54 -38 -60 -13 -43 -51 -56 -53 -71 -0 -0 -0 -0 -0 -0 -0 -0 -0 -0 -0 -0 -0 -0 -0 -0 -0 -0 -0 -0 -0 -0 -0 -0 -0 -0 -0 -0 -0 -0 -0 -0 -27 -8
-59 -52 -74 -52 -47 -57 -80 -4 -0 -0 -0 -0 -0 -0 -0 -0 -0 -0 -0 -0 -0 -0 -0 -0 -0 -0 -0 -0 -0 -0 -0 -0 -0 -0 -0 -0 -0 -0 -0 -0 -0 -0 -14
-61 -167 -84 -42 -50 -73 -61 -0 -0 -0 -0 -0 -0 -0 -0 -0 -0 -0 -0 -0 -0 -0 -0 -0 -0 -0 -0 -0 -0 -0 -0 -0 -0 -0 -0 -0 -0 -0 -0 -0 -0 -0 -0
-13 -72 -96 -59 -63 -95 -24 -0 -0 -0 -0 -0 -0 -0 -0 -0 -0 -0 -0 -0 -0 -0 -0 -0 -0 -0 -0 -0 -0 -0 -0 -0 -0 -0 -0 -0 -0 -0 -0 -0 -0 -0 -0
-40 -34 -37 -33 -58 -0 -13 -67 -0 -0 -0 -0 -0 -0 -0 -0 -0 -0 -0 -0 -0 -0 -0 -0 -0 -0 -0 -0 -0 -0 -0 -0 -0 -0 -0 -0 -0 -0 -0 -0 -0 -0 -0
-21 -29 -66 -23 -18 -0 -45 -36 -32 -30 -0 -0 -0 -0 -0 -0 -0 -0 -0 -0 -0 -0 -0 -0 -0 -0 -0 -0 -0 -0 -0 -0 -0 -0 -0 -0 -0 -0 -0 -0 -0 -0 -0
-0 -0 -0 -0 -0 -0 -0 -0 -0 -36 -0 -0 -0 -0 -0 -0 -0 -0 -0 -0 -0 -0 -0 -0 -0 -0 -0 -0 -0 -0 -0 -0 -0 -0 -0 -0 -0 -0 -0 -0 -0 -0 -0
-0 -0 -0 -0 -0 -0 -0 -0 -0 -0 -0 -0 -0 -0 -0 -0 -0 -0 -0 -0 -0 -0 -0 -0 -0 -0 -0 -0 -0 -0 -0 -0 -0 -0 -0 -0 -0 -0 -0 -0 -0 -0 -0
-0 -3 -0 -0 -0 -0 -0 -0 -0 -0 -0 -0 -0 -0 -0 -0 -0 -0 -0 -0 -0 -0 -0 -0 -0 -0 -0 -0 -0 -0 -0 -0 -0 -0 -0 -0 -0 -0 -0 -0 -0 -0 -0
Wind_Speed
5 3 3 4 7 10 13 15 16 17 19 18 18 19 19 19 20 21 20 20 19 18 17 19 19 21 25 27 27 30 34 36 43 47 47 46 44 43 43 41 41 39 39
4 4 2 5 8 8 11 14 17 18 19 19 19 20 20 21 21 20 20 19 19 20 19 20 20 21 23 24 25 30 33 36 42 50 49 47 44 41 44 43 42 40 42
5 4 2 3 5 8 11 14 16 17 17 18 18 19 21 21 20 19 19 18 19 19 22 21 21 20 22 23 24 30 33 37 40 45 51 48 45 42 41 42 42 42 39
6 6 3 2 3 6 9 12 14 14 17 17 17 19 19 19 19 19 18 18 19 20 21 21 21 22 22 22 23 31 34 37 41 46 49 49 46 43 41 43 44 40 42
6 5 5 3 3 6 8 11 11 13 15 16 18 18 20 20 20 19 21 20 21 21 22 23 22 21 20 20 22 29 32 34 40 47 51 50 48 44 43 42 45 43 42
8 6 5 4 3 5 7 8 9 12 14 15 19 21 22 20 19 20 22 23 22 24 27 26 26 23 22 20 21 23 24 31 37 47 51 50 50 47 45 44 45 45 44
8 6 6 4 4 5 6 8 10 12 13 16 19 20 23 20 18 21 21 23 25 28 28 28 28 27 28 24 24 25 27 31 33 44 52 51 52 50 48 48 46 46 46
9 7 6 4 5 5 7 9 11 12 14 17 19 22 23 20 19 20 19 23 26 25 20 21 22 23 26 27 29 28 31 33 37 39 48 52 50 51 50 51 49 46 44
9 9 7 5 5 7 9 11 12 14 15 18 21 23 23 21 20 16 18 22 27 26 28 27 30 24 25 26 28 27 29 34 40 46 46 50 50 47 49 49 48 44 46
10 9 6 6 7 9 10 11 12 15 16 18 23 25 22 20 18 17 16 24 27 29 29 28 28 24 24 26 26 25 29 35 47 49 50 47 43 40 36 37 46 48 41
10 7 7 7 9 10 10 12 14 16 17 21 25 22 24 25 21 16 19 24 27 27 28 29 26 24 27 28 27 21 23 34 41 47 47 40 40 35 29 32 43 45 43
9 9 10 11 11 12 13 14 15 17 21 27 26 21 23 23 22 21 22 24 23 27 26 28 21 23 26 29 29 25 19 37 40 44 44 38 37 34 29 28 39 46 47
27 14 13 9 15 14 14 13 18 24 27 28 24 21 22 22 21 21 23 23 22 25 25 25 17 21 25 29 30 31 25 36 39 39 41 36 34 31 27 22 26 39 46
21 25 29 22 20 17 18 18 20 22 24 24 23 24 21 21 22 23 24 23 24 26 28 27 14 19 23 28 31 31 26 21 37 38 28 27 28 29 26 22 20 20 31
17 22 21 16 19 19 20 17 16 19 22 20 21 21 21 22 22 21 22 21 21 25 28 23 17 22 27 32 32 28 24 22 13 34 26 26 29 28 26 23 19 18 20
16 21 20 20 21 18 17 19 20 18 18 19 21 20 22 21 21 21 21 18 17 22 20 22 24 26 29 29 30 30 25 25 24 12 33 30 30 24 26 24 22 16 17
17 19 20 20 19 15 15 16 18 18 18 20 20 21 21 21 23 25 26 18 18 18 21 23 25 25 26 27 28 28 29 27 24 26 8 27 24 23 28 25 22 19 17
18 19 20 19 16 15 17 18 18 17 18 19 19 19 20 21 22 24 23 19 19 21 22 23 23 24 24 24 25 27 28 29 30 31 27 16 28 29 27 24 23 20 18
19 22 20 17 17 17 18 19 19 18 18 19 20 20 19 19 19 22 21 19 18 20 20 21 21 22 23 24 25 26 27 28 29 30 31 31 27 28 25 24 20 21 20
19 21 20 17 17 17 18 18 18 17 18 16 17 18 19 19 19 20 19 18 18 18 18 19 20 21 22 24 25 26 26 27 28 29 29 30 31 31 27 24 21 20 21
20 19 17 16 15 15 17 17 16 15 15 15 17 18 18 18 18 18 17 18 18 19 18 20 21 20 21 23 26 25 25 25 27 28 28 28 28 28 29 29 26 19 21
15 16 17 15 14 16 15 13 13 13 12 13 15 16 16 17 19 19 19 17 18 18 17 19 20 21 22 23 24 23 23 23 25 26 27 27 27 26 26 26 27 27 22
13 15 17 17 15 15 13 14 15 12 11 13 12 13 14 15 17 18 16 19 15 17 17 18 19 20 20 21 21 22 22 22 24 25 26 26 26 26 26 25 25 24 24
14 16 16 14 14 13 15 17 18 11 12 15 12 12 12 12 13 15 13 15 15 17 15 16 17 18 19 19 20 20 21 22 24 24 24 25 25 25 25 25 24 24 23
16 14 13 12 12 12 13 15 14 11 11 14 14 14 11 9 10 12 13 13 14 13 14 13 15 17 18 19 20 20 21 22 23 24 24 23 24 24 24 24 24 23 24
21 14 16 17 16 12 11 15 15 18 12 11 11 12 11 12 11 11 12 13 12 12 12 13 13 14 16 18 19 21 21 22 22 24 23 22 22 23 23 23 23 23 22
Wind_Direction
195 192 359 13 27 21 21 17 19 14 9 6 3 359 357 355 352 350 348 347 347 345 345 343 343 342 339 339 339 337 333 329 319 313 312 306 297 283 280 275 270 272 266
203 203 339 8 8 14 15 11 10 7 6 4 1 359 357 352 350 349 347 345 343 343 343 341 339 338 337 337 337 335 334 329 324 312 312 308 300 290 280 275 271 271 267
204 203 274 345 3 5 5 3 2 3 6 4 2 359 354 353 353 351 349 346 346 341 338 337 335 334 331 332 332 333 332 329 327 320 311 308 302 293 285 278 271 268 269
198 206 230 264 343 358 358 358 357 3 2 360 360 356 355 354 351 349 346 345 346 342 339 337 334 332 328 328 328 330 331 329 328 322 315 307 304 294 285 276 270 269 264
202 205 225 251 316 343 350 350 356 357 357 358 357 354 352 350 351 356 351 349 345 342 340 337 333 332 332 329 329 330 331 332 330 320 312 308 301 290 284 275 269 267 263
209 219 231 238 289 326 337 342 344 347 350 353 352 351 350 350 350 351 348 345 345 341 338 338 335 333 333 329 328 331 330 333 332 326 313 307 296 287 282 271 266 262 260
212 225 216 243 281 305 319 331 335 338 345 346 348 348 345 346 348 345 345 345 340 336 334 334 334 333 332 334 335 334 336 334 332 326 311 301 294 287 280 267 260 257 255
210 224 225 249 284 301 316 324 328 333 335 342 342 343 342 344 343 343 346 343 340 336 334 336 340 340 337 335 336 340 338 339 340 335 319 302 291 285 271 258 253 254 254
220 221 224 258 284 300 310 320 326 329 330 333 337 337 338 340 341 344 348 346 346 345 340 338 330 342 342 341 342 344 343 341 340 337 329 301 291 285 263 249 244 248 245
223 208 235 256 282 299 311 316 322 329 323 333 335 338 341 344 346 343 349 349 345 336 340 341 343 348 347 346 348 349 346 346 333 328 320 311 306 300 283 249 239 239 244
203 231 251 273 292 301 307 314 323 328 330 333 333 340 340 341 344 345 344 344 343 336 332 338 344 347 346 348 353 357 353 346 344 339 320 312 314 313 304 252 236 236 239
233 258 272 285 298 310 318 330 335 337 338 334 333 343 346 348 347 344 346 344 344 331 337 333 345 347 348 349 355 0 3 336 341 345 325 318 317 316 300 272 235 230 230
304 272 280 291 314 329 332 332 336 337 340 328 335 346 346 349 353 353 354 356 353 338 341 337 353 353 352 352 359 359 9 343 334 358 328 323 321 315 310 294 255 231 226
292 353 328 337 329 343 343 340 338 336 335 339 340 343 349 349 349 350 351 353 346 343 335 334 359 356 358 355 360 3 12 18 346 351 315 317 317 325 325 308 275 264 245
317 331 319 316 328 335 339 339 338 342 340 342 342 345 346 344 344 348 348 349 349 342 331 346 1 348 347 342 351 10 21 26 338 330 319 324 329 329 331 328 307 287 270
315 321 324 331 338 341 344 348 353 353 354 353 348 347 349 352 352 350 346 352 355 348 351 341 341 340 341 341 349 1 23 24 29 318 343 332 335 332 334 333 328 313 295
325 328 329 332 333 340 344 345 345 348 352 352 353 354 354 354 354 350 341 351 354 357 349 340 341 343 342 343 345 356 6 24 33 34 328 332 327 335 347 341 333 333 321
329 327 331 331 337 342 343 344 343 342 343 346 349 351 352 354 355 352 355 7 1 350 345 341 344 344 346 348 350 353 357 7 9 15 32 50 339 344 346 344 343 336 333
326 326 326 333 335 337 340 344 347 348 345 348 348 346 350 355 3 357 354 358 0 352 352 349 350 347 345 347 347 350 352 352 351 358 11 21 2 344 339 339 336 344 346
324 328 330 332 335 337 340 341 343 342 342 349 351 350 350 351 354 359 0 1 355 359 358 354 351 350 346 344 342 339 343 345 348 346 340 349 4 14 341 337 334 335 342
322 328 336 340 340 340 338 338 339 342 347 350 349 350 352 353 350 349 354 353 350 352 356 348 348 348 345 345 341 340 340 343 344 344 345 340 338 344 7 15 343 327 338
341 336 338 338 338 338 340 345 342 346 350 348 350 352 354 355 351 343 340 347 346 350 359 356 349 346 347 347 345 346 348 349 342 338 339 342 343 343 343 351 3 7 347
340 339 338 340 340 340 343 344 340 339 341 342 347 349 350 353 354 355 348 339 354 352 358 356 354 351 354 354 354 355 355 353 353 349 345 342 346 349 347 348 349 352 2
342 339 341 343 344 342 337 335 340 348 348 343 346 345 347 353 355 356 355 352 356 353 2 5 5 2 357 356 356 356 352 351 351 350 352 352 352 351 352 354 354 355 354
341 340 344 343 343 342 343 341 344 347 345 341 341 343 350 353 356 356 358 355 353 358 2 10 6 5 2 359 356 352 348 346 346 344 350 351 351 349 350 354 354 353 357
335 341 338 335 336 338 341 340 338 335 339 343 345 347 351 352 356 356 353 352 356 359 5 2 8 6 6 3 360 353 347 342 342 341 345 348 347 346 346 346 347 349 351